| time (UTC) | temp C | wind direction | speed KPH | gust KPH | rain 1hr cm | rain 24hr cm | rain mn cm | humidity % | barometer mb |
| 20260503034122 | 17 | 203 | 0.0 | 0.0 | 0.00 | 0.00 | 0.00 | 32 | 1010.3 |
| 20260503033122 | 17 | 270 | 0.0 | 0.0 | 0.00 | 0.00 | 0.00 | 31 | 1010.3 |
| 20260503032122 | 18 | 248 | 0.0 | 0.0 | 0.00 | 0.00 | 0.00 | 29 | 1010.3 |
| 20260503031122 | 18 | 270 | 0.0 | 0.0 | 0.00 | 0.00 | 0.00 | 28 | 1010.3 |
| 20260503030122 | 19 | 203 | 0.0 | 0.0 | 0.00 | 0.00 | 0.00 | 27 | 1010.5 |
| 20260503025123 | 20 | 247 | 1.6 | 11.3 | 0.00 | 0.00 | 0.00 | 26 | 1010.4 |
| 20260503024143 | 20 | 247 | 0.0 | 14.5 | 0.00 | 0.00 | 0.00 | 26 | 1010.4 |
| 20260503023122 | 20 | 269 | 6.4 | 17.7 | 0.00 | 0.00 | 0.00 | 25 | 1010.4 |
| 20260503022122 | 20 | 272 | 9.7 | 20.9 | 0.00 | 0.00 | 0.00 | 26 | 1010.4 |
| 20260503021122 | 20 | 272 | 11.3 | 29.0 | 0.00 | 0.00 | 0.00 | 26 | 1010.4 |
| 20260503020122 | 21 | 270 | 8.0 | 25.7 | 0.00 | 0.00 | 0.00 | 26 | 1010.5 |
| 20260503015122 | 21 | 260 | 9.7 | 29.0 | 0.00 | 0.00 | 0.00 | 27 | 1010.5 |
| 20260503014122 | 21 | 257 | 8.0 | 20.9 | 0.00 | 0.00 | 0.00 | 28 | 1010.5 |
| 20260503013122 | 21 | 265 | 9.7 | 22.5 | 0.00 | 0.00 | 0.00 | 27 | 1010.7 |
| 20260503012122 | 21 | 270 | 9.7 | 22.5 | 0.00 | 0.00 | 0.00 | 27 | 1010.7 |
| 20260503011122 | 21 | 265 | 8.0 | 22.5 | 0.00 | 0.00 | 0.00 | 27 | 1010.8 |
| 20260503010144 | 21 | 258 | 12.9 | 29.0 | 0.00 | 0.00 | 0.00 | 27 | 1010.9 |
| 20260503005144 | 22 | 260 | 9.7 | 22.5 | 0.00 | 0.00 | 0.00 | 26 | 1011.0 |
| 20260503004122 | 22 | 245 | 1.6 | 14.5 | 0.00 | 0.00 | 0.00 | 26 | 1011.0 |
| 20260503003123 | 22 | 248 | 9.7 | 22.5 | 0.00 | 0.00 | 0.00 | 26 | 1011.4 |
| 20260503002122 | 22 | 267 | 9.7 | 24.1 | 0.00 | 0.00 | 0.00 | 26 | 1011.5 |
| 20260503001122 | 21 | 245 | 16.1 | 32.2 | 0.00 | 0.00 | 0.00 | 26 | 1011.9 |
| 20260503000122 | 22 | 259 | 14.5 | 32.2 | 0.00 | 0.00 | 0.00 | 26 | 1011.9 |
| 20260502235144 | 22 | 232 | 11.3 | 37.0 | 0.00 | 0.00 | 0.00 | 26 | 1012.0 |
| 20260502234123 | 21 | 236 | 14.5 | 35.4 | 0.00 | 0.00 | 0.00 | 26 | 1012.0 |
| 20260502233122 | 22 | 247 | 12.9 | 35.4 | 0.00 | 0.00 | 0.00 | 26 | 1012.4 |
| 20260502232123 | 23 | 256 | 9.7 | 30.6 | 0.00 | 0.00 | 0.00 | 25 | 1012.5 |
| 20260502231122 | 23 | 272 | 9.7 | 22.5 | 0.00 | 0.00 | 0.00 | 26 | 1012.9 |
| 20260502230122 | 22 | 256 | 14.5 | 37.0 | 0.00 | 0.00 | 0.00 | 25 | 1013.0 |
| 20260502225122 | 22 | 261 | 12.9 | 37.0 | 0.00 | 0.00 | 0.00 | 25 | 1013.2 |
| 20260502224122 | 23 | 258 | 14.5 | 35.4 | 0.00 | 0.00 | 0.00 | 25 | 1013.2 |
| 20260502223123 | 22 | 252 | 11.3 | 30.6 | 0.00 | 0.00 | 0.00 | 26 | 1013.4 |
| 20260502222123 | 22 | 272 | 6.4 | 27.4 | 0.00 | 0.00 | 0.00 | 26 | 1013.7 |
| 20260502221123 | 22 | 232 | 12.9 | 30.6 | 0.00 | 0.00 | 0.00 | 26 | 1013.9 |
| 20260502220122 | 23 | 249 | 9.7 | 29.0 | 0.00 | 0.00 | 0.00 | 25 | 1014.0 |
| 20260502215122 | 22 | 234 | 8.0 | 30.6 | 0.00 | 0.00 | 0.00 | 27 | 1014.2 |
| 20260502214126 | 22 | 255 | 11.3 | 32.2 | 0.00 | 0.00 | 0.00 | 25 | 1014.2 |
| 20260502213123 | 22 | 279 | 11.3 | 40.2 | 0.00 | 0.00 | 0.00 | 25 | 1014.3 |
| 20260502212123 | 22 | 288 | 6.4 | 29.0 | 0.00 | 0.00 | 0.00 | 25 | 1014.5 |
| 20260502211123 | 21 | 256 | 11.3 | 32.2 | 0.00 | 0.00 | 0.00 | 26 | 1014.8 |
| 20260502210123 | 22 | 266 | 16.1 | 38.6 | 0.00 | 0.00 | 0.00 | 26 | 1014.9 |
| 20260502205125 | 22 | 258 | 11.3 | 30.6 | 0.00 | 0.00 | 0.00 | 26 | 1015.0 |
| 20260502204123 | 21 | 260 | 12.9 | 33.8 | 0.00 | 0.00 | 0.00 | 27 | 1015.0 |
| 20260502203126 | 21 | 279 | 12.9 | 37.0 | 0.00 | 0.00 | 0.00 | 26 | 1015.4 |
| 20260502202123 | 21 | 283 | 6.4 | 22.5 | 0.00 | 0.00 | 0.00 | 26 | 1015.7 |
| 20260502201144 | 20 | 281 | 12.9 | 32.2 | 0.00 | 0.00 | 0.00 | 26 | 1015.7 |
| 20260502200127 | 20 | 256 | 14.5 | 33.8 | 0.00 | 0.00 | 0.00 | 27 | 1016.0 |
| 20260502195123 | 21 | 281 | 11.3 | 29.0 | 0.00 | 0.00 | 0.00 | 27 | 1016.0 |
| 20260502194147 | 20 | 296 | 16.1 | 40.2 | 0.00 | 0.00 | 0.00 | 28 | 1016.0 |
| 20260502193123 | 20 | 296 | 11.3 | 32.2 | 0.00 | 0.00 | 0.00 | 28 | 1016.3 |
| 20260502192123 | 20 | 276 | 14.5 | 37.0 | 0.00 | 0.00 | 0.00 | 28 | 1016.5 |
| 20260502191123 | 19 | 277 | 14.5 | 37.0 | 0.00 | 0.00 | 0.00 | 29 | 1016.5 |
| 20260502190123 | 20 | 277 | 14.5 | 30.6 | 0.00 | 0.00 | 0.00 | 29 | 1016.9 |
| 20260502185123 | 19 | 273 | 19.3 | 43.5 | 0.00 | 0.00 | 0.00 | 30 | 1017.0 |
| 20260502184123 | 19 | 293 | 12.9 | 41.8 | 0.00 | 0.00 | 0.00 | 30 | 1017.0 |
| 20260502183126 | 19 | 263 | 14.5 | 37.0 | 0.00 | 0.00 | 0.00 | 29 | 1017.0 |
| 20260502182123 | 19 | 238 | 9.7 | 33.8 | 0.00 | 0.00 | 0.00 | 30 | 1017.3 |
| 20260502181123 | 19 | 216 | 3.2 | 22.5 | 0.00 | 0.00 | 0.00 | 30 | 1017.5 |
| 20260502180144 | 18 | 257 | 11.3 | 27.4 | 0.00 | 0.00 | 0.00 | 32 | 1017.8 |
| 20260502170123 | 18 | 246 | 1.6 | 20.9 | 0.00 | 0.00 | 0.00 | 34 | 1018.4 |
| 20260502164123 | 16 | 254 | 3.2 | 17.7 | 0.00 | 0.00 | 0.00 | 37 | 1018.5 |
| 20260502163126 | 16 | 238 | 1.6 | 20.9 | 0.00 | 0.00 | 0.00 | 39 | 1018.5 |
| 20260502162123 | 16 | 250 | 3.2 | 20.9 | 0.00 | 0.00 | 0.00 | 38 | 1018.5 |
| 20260502161123 | 15 | 205 | 1.6 | 17.7 | 0.00 | 0.00 | 0.00 | 43 | 1018.7 |
| 20260502160123 | 14 | 218 | 1.6 | 14.5 | 0.00 | 0.00 | 0.00 | 45 | 1018.8 |
| 20260502152127 | 12 | 222 | 1.6 | 14.5 | 0.00 | 0.00 | 0.00 | 51 | 1019.0 |
| 20260502151123 | 12 | 248 | 0.0 | 12.9 | 0.00 | 0.00 | 0.00 | 53 | 1019.2 |
| 20260502150144 | 11 | 227 | 1.6 | 12.9 | 0.00 | 0.00 | 0.00 | 54 | 1019.2 |
| 20260502140123 | 8 | 180 | 0.0 | 8.0 | 0.00 | 0.00 | 0.00 | 63 | 1019.4 |
| 20260502130126 | 5 | 191 | 0.0 | 3.2 | 0.00 | 0.00 | 0.00 | 72 | 1019.3 |
| 20260502123123 | 4 | 158 | 0.0 | 0.0 | 0.00 | 0.00 | 0.00 | 77 | 1019.2 |
| 20260502122123 | 3 | 150 | 0.0 | 6.4 | 0.00 | 0.00 | 0.00 | 79 | 1019.2 |
| 20260502121123 | 3 | 180 | 0.0 | 0.0 | 0.00 | 0.00 | 0.00 | 80 | 1019.0 |
| 20260502120123 | 3 | 203 | 0.0 | 0.0 | 0.00 | 0.00 | 0.00 | 81 | 1019.0 |
| 20260502115126 | 3 | 180 | 0.0 | 0.0 | 0.00 | 0.00 | 0.00 | 81 | 1019.0 |
| 20260502114123 | 3 | 180 | 0.0 | 0.0 | 0.00 | 0.00 | 0.00 | 81 | 1019.0 |
| 20260502113123 | 3 | 180 | 0.0 | 0.0 | 0.00 | 0.00 | 0.00 | 82 | 1019.0 |
| 20260502112123 | 3 | 158 | 0.0 | 0.0 | 0.00 | 0.00 | 0.00 | 81 | 1019.0 |
| 20260502111123 | 3 | 180 | 0.0 | 0.0 | 0.00 | 0.00 | 0.00 | 80 | 1019.0 |
| 20260502110123 | 3 | 203 | 1.6 | 11.3 | 0.00 | 0.00 | 0.00 | 80 | 1018.9 |
| 20260502105123 | 3 | 180 | 0.0 | 0.0 | 0.00 | 0.00 | 0.00 | 80 | 1019.0 |
| 20260502104127 | 4 | 203 | 0.0 | 0.0 | 0.00 | 0.00 | 0.00 | 80 | 1019.0 |
| 20260502103123 | 4 | 173 | 0.0 | 9.7 | 0.00 | 0.00 | 0.00 | 80 | 1018.9 |
| 20260502102126 | 4 | 180 | 0.0 | 0.0 | 0.00 | 0.00 | 0.00 | 79 | 1018.9 |
| 20260502101123 | 4 | 203 | 0.0 | 0.0 | 0.00 | 0.00 | 0.00 | 79 | 1018.8 |
| 20260502100144 | 4 | 202 | 0.0 | 4.8 | 0.00 | 0.00 | 0.00 | 79 | 1018.9 |
| 20260502091126 | 5 | 203 | 0.0 | 0.0 | 0.00 | 0.00 | 0.00 | 78 | 1018.7 |
| 20260502090123 | 5 | 225 | 0.0 | 0.0 | 0.00 | 0.00 | 0.00 | 78 | 1018.7 |
| 20260502071126 | 7 | 326 | 0.0 | 4.8 | 0.00 | 0.00 | 0.00 | 68 | 1018.4 |
| 20260502070123 | 7 | 315 | 0.0 | 0.0 | 0.00 | 0.00 | 0.00 | 68 | 1018.3 |
| 20260502065126 | 7 | 270 | 0.0 | 0.0 | 0.00 | 0.00 | 0.00 | 67 | 1018.3 |
| 20260502064123 | 7 | 315 | 0.0 | 0.0 | 0.00 | 0.00 | 0.00 | 66 | 1018.3 |
| 20260502063126 | 8 | 338 | 0.0 | 0.0 | 0.00 | 0.00 | 0.00 | 65 | 1018.3 |
| 20260502062144 | 8 | 338 | 0.0 | 0.0 | 0.00 | 0.00 | 0.00 | 64 | 1018.0 |
| 20260502061123 | 9 | 338 | 0.0 | 0.0 | 0.00 | 0.00 | 0.00 | 63 | 1018.2 |
| 20260502060123 | 10 | 315 | 0.0 | 8.0 | 0.00 | 0.00 | 0.00 | 63 | 1018.0 |
| 20260502055123 | 10 | 315 | 0.0 | 0.0 | 0.00 | 0.00 | 0.00 | 63 | 1018.0 |
| 20260502054123 | 10 | 331 | 0.0 | 9.7 | 0.00 | 0.00 | 0.00 | 62 | 1018.0 |
| 20260502053123 | 10 | 320 | 1.6 | 12.9 | 0.00 | 0.00 | 0.00 | 61 | 1018.0 |
| 20260502052126 | 10 | 315 | 0.0 | 0.0 | 0.00 | 0.00 | 0.00 | 60 | 1017.9 |
| 20260502051123 | 11 | 308 | 1.6 | 9.7 | 0.00 | 0.00 | 0.00 | 60 | 1017.8 |
| 20260502050123 | 11 | 315 | 3.2 | 12.9 | 0.00 | 0.00 | 0.00 | 59 | 1017.9 |
| 20260502045123 | 11 | 322 | 1.6 | 12.9 | 0.00 | 0.00 | 0.00 | 58 | 1017.5 |
| 20260502044144 | 11 | 326 | 0.0 | 12.9 | 0.00 | 0.00 | 0.00 | 58 | 1017.5 |
| 20260502043126 | 11 | 338 | 0.0 | 0.0 | 0.00 | 0.00 | 0.00 | 57 | 1017.5 |
| 20260502042123 | 11 | 307 | 3.2 | 12.9 | 0.00 | 0.00 | 0.00 | 55 | 1017.5 |
| 20260502041126 | 12 | 348 | 3.2 | 12.9 | 0.00 | 0.00 | 0.00 | 54 | 1017.4 |
| 20260502040123 | 12 | 339 | 3.2 | 16.1 | 0.00 | 0.00 | 0.00 | 53 | 1017.4 |
| 20260502035123 | 12 | 328 | 4.8 | 16.1 | 0.00 | 0.00 | 0.00 | 52 | 1017.3 |